Location: Recife
(8.0585°S, 34.8848°W)
Time: 22:02:38
(UTC-03:00)

A-11 Canister half - Pass Details

Date: 22 April 2026
Orbit: 1515 x 1684 km, 47.2° (Epoch: 12 May)

Event Time Altitude Azimuth Distance (km) Brightness Sun altitude
Rises 14:06:08 0° 288° (WNW) 4,900 12.4 43.5°
Reaches altitude 10° 14:09:59 10° 276° (W) 3,929 12.2 42.6°
Maximum altitude 14:18:01 27° 223° (SW) 2,851 10.9 40.8°
Drops below altitude 10° 14:26:07 10° 169° (S) 3,944 11.0 39.0°
Sets 14:30:04 0° 157° (SSE) 4,921 11.3 38.1°
